Location: Austin
(30.3000°N, 97.7500°W)
Time: 23:09:27
(UTC-05:00)

Cosmos 1833 Rocket - Pass Details

Date: 06 May 2026
Orbit: 832 x 838 km, 71.0° (Epoch: 13 May)

Event Time Altitude Azimuth Distance (km) Brightness Sun altitude
Rises 20:35:07 0° 173° (S) 3,358 5.5 -5.4°
Reaches altitude 10° 20:37:48 10° 162° (SSE) 2,428 4.7 -5.9°
Maximum altitude 20:42:36 30° 103° (ESE) 1,444 3.4 -6.9°
Drops below altitude 10° 20:47:24 10° 43° (NE) 2,441 4.9 -7.8°
Sets 20:50:05 0° 33° (NNE) 3,378 5.7 -8.4°
